Погода в Есиле

Погода в Есиле : погода сейчас, прогноз погоды и архив. Всё, что Вы хотите узнать о погоде в Есиле!

Хотите узнать прогноз погоды в Есиле? Тогда Вам сюда: Погода в Есиле

Поиск расширенной информации на нашем сайте:

Другие новости

Новости СМИ2

Главная страница сайта

Новости сайта

03.07.2017

Напоминаем, что на нашем специализированном сайте Метеоцентр.Азия вы можете получить высокодетализированные автоматические прогнозы погоды по пунктам России, СНГ и мира в авиационном формате (включающие направление и скорость ветра, видимость, явления погоды, количество и форму облачности, нижнюю и верхнюю границу облачности).

Рекомендуем: тумба челябинск

Погода в Есиле - сегодня

Время (UTC), дата Ветер
(°,м/с) 
Видим.   Явления Облачность Т
(°С)
Тd
(°С)
f(%) Тe
(°С)
Pmin
(гПа)
dP
(гПа)
Po
(мм)
O2
(г/м3)
Тmin Tmax R s Состояние
почвы
18 13.12.17 тихо ()   н/о    ясно 
-24.4 -25.8 88 -24  1047.4  0.6  762  339    -15.9       
21 13.12.17 тихо ()   н/о    ясно 
-26.3 -27.7 88 -26  1047.6  -0.1  762  342           
00 14.12.17 090 (В) н/о    ясно 
-22.8 -24.5 86 -23  1047.1  762  337           
03 14.12.17 090 (В) н/о    ясно 
-25 -26.8 85 -26  1047.9  0.5  763  340        равномерный
сухой снег
100% 
06 14.12.17 тихо ()   20000 м    ясно 
-18.9 -20.9 84 -19  1048.3  1.1  763  332  -26.3         
09 14.12.17 110 (В) 20000 м    ясно 
-13.2 -17.9 68 -13  1046.5  -1.1  763  324           
12 14.12.17 070 (В) н/о    ясно 
-18.3 -21.2 78 -19  1048.3  1.2  763  331           
15 14.12.17 090 (В) н/о    ясно 
-21.1 -22.8 86 -21  1048.7  763  335    -13.1       
18 14.12.17 070 (В) н/о    ясно 
-21.9 -23.4 88 -25  1047.9  -0.8  763  336    -13.1       
21 14.12.17 070 (В) н/о    5/0 средняя 
[Ac trans]
-19.1 -20.6 88 -22  1047.6  763  332           
00 15.12.17 тихо ()   н/о    3/0 средняя 
[Ac trans]
-20.1 -21.7 87 -20  1047.4  -0.3  763  333           
03 15.12.17 050 (СВ) н/о    ясно 
-25 -27.2 82 -26  1048.3  0.3  763  340        равномерный
сухой снег
100% 
06 15.12.17 070 (В) 20000 м    3/0 верхняя 
[Ci fib]
-16.5 -20.1 74 -17  1047.8  0.5  763  329  -25         
09 15.12.17 тихо ()   20000 м    3/0 верхняя 
[Ci fib]
-10.8 -19.4 49 -11  1046.3  -0.8  763  321           
12 15.12.17 тихо ()   н/о  дым  ясно 
-17.5 -21.7 70 -18  1047.7  0.6  763  330           
15 15.12.17 тихо ()   н/о  дым  ясно 
-18.9 -22.7 72 -19  1047.6  -0.3  763  332    -10.7       
18 15.12.17 тихо ()   н/о  дым  ясно 
-21.5 -24.8 75 -22  1047.6  -0.3  763  335    -10.7       
21 15.12.17 тихо ()   н/о    ясно 
-23.8 -26.7 77 -24  1047.1  -0.8  762  338           
00 16.12.17 тихо ()   н/о    ясно 
-24.3 -26.9 79 -24  1046.9  -0.2  762  339           
03 16.12.17 тихо ()   н/о  дым  ясно 
-27.7 -30.2 79 -28  1047.5  0.1  762  344        равномерный
сухой снег
100% 
06 16.12.17 тихо ()   20000 м    ясно 
-20.7 -23.5 78 -21  1046.4  -0.2  762  334  -27.7         
09 16.12.17 тихо ()   20000 м    ясно 
-12.9 -18.9 61 -13  1044.6  -0.8  761  323           
12 16.12.17 тихо ()   н/о    ясно 
-14.5 -19.1 68 -15  1044.9  0.1  761  325           
15 16.12.17 тихо ()   н/о    ясно 
-20.9 -23.3 81 -21  1046.1  0.4  762  334    -12.9       
18 16.12.17 тихо ()   н/о    ясно 
-21 -23.7 79 -21  1045.7  -0.4  761  334    -12.9       
Время (UTC), дата Ветер
(°,м/с) 
Видим.   Явления Облачность Т
(°С)
Тd
(°С)
f(%) Тe
(°С)
Pmin
(гПа)
dP
(гПа)
Po
(мм)
O2
(г/м3)
Тmin Tmax R s Состояние
почвы

Для получения пояснительной информации подведите курсор к названию столбца.

ПОГОДА в Есиле - архив

Всё, что Вы хотите узнать о погоде в Есиле - удобно и подробно!

Выберите нужную дату (начиная с 1 января 2015* года) и нажмите кнопку "Найти".
Будут отображены архивные сводки погоды по пункту Есиль, начиная с указанной даты.


Отображать данные в формате CSV (для использования в таблицах Excel)


Внимание! Наш архив погоды предназначен исключительно для личного некоммерческого использования в познавательных целях. Если Вам необходимы официальные справки о состоянии погоды (для производственных, юридических, коммерческих и т.п. целей), обращайтесь в органы Росгидромета.

*Примечание: данная дата относится к архиву по метеостанциям СССР (Россия, СНГ, Балтия).
Архив по метеостанциям Зарубежной Европы и Азии (кроме Китая) хранится 10 дней, по другим регионам земного шара (Китай, Африка, Америка, Австралия, Океания) - 1 день.

Есиль - район местоположения метеостанции


Название, широта, долгота, высота метеостанции:
Есиль 51.9°ш. 66.3°д. 221 м над ур. моря [Казахстан]

Дополнительная информация

В oтличие oт бoльшинства пoгoдных сайтoв мы публикуем пoдрoбную метеoинфoрмацию в детальнoм прoфессиoнальнoм фoрмате.

Характеристики температуры и влажнoсти вoздуха измеряются на высoте 2 м в тени вдали oт зданий и деревьев.
Скoрoсть ветра измеряется на высoте 10 м (на урoвне рoста челoвека скoрoсть ветра ниже в 1.5-2 раза). Если метеoстанция нахoдится в гoрoде или в лесу, тo скoрoсть ветра занижена на 2-4 м/с пo сравнению с oткрытым местoм. Скoрoсть ветра над акватoриями крупных рек и oзёр, а также на вершинах хoлмoв на 2-5 м/с выше, чем в oбычных услoвиях.
Атмoсфернoе давление в разных тoчках местнoсти мoжет значительнo oтличаться oт давления на метеoстанции, в зависимoсти oт услoвий рельефа (при пoдъёме на 10 м давление пoнижается примернo на 1 мм рт.ст.).